Погода Сырдарья

Погода Сырдарья : погода сейчас, прогноз погоды и архив. Всё, что Вы хотите узнать о погоде Сырдарья!

Поиск расширенной информации на нашем сайте:

Другие новости

Новости СМИ2

Главная страница сайта

Новости сайта

03.07.2017

Напоминаем, что на нашем специализированном сайте Метеоцентр.Азия вы можете получить высокодетализированные автоматические прогнозы погоды по пунктам России, СНГ и мира в авиационном формате (включающие направление и скорость ветра, видимость, явления погоды, количество и форму облачности, нижнюю и верхнюю границу облачности).


Погода Сырдарья - сегодня

Время (UTC), дата Ветер
(°,м/с) 
Видим.   Явления Облачность Т
(°С)
Тd
(°С)
f(%) Тe
(°С)
Pmin
(гПа)
dP
(гПа)
Po
(мм)
O2
(г/м3)
Тmin Tmax R s Состояние
почвы
09 15.06.18 110 (В) 10 км    3/3 600 м 
[Cu med, cong]
+29.3 +23.5 71 +58  1008.5  0.2  734  261           
12 15.06.18 110 (В) 10 км  в посл. час гроза  10/8 600 м кучево-дожд., средняя 
[Cb cap|Ac lent]
+24.5 +17.8 66 +39  1010  0.9  735  268           
15 15.06.18 140 (ЮВ) 10 км  {гроза}  4/4 600 м кучево-дожд. 
[Cb cap]
+22.1 +18.1 78 +37  1011.3  0.9  736  270    +29.6       
18 15.06.18 070 (В) 10 км  {гроза}  3/3 600 м 
[Cu med, cong]
+18.8 +17.8 94 +35  1012.3  0.7  736  273    +29.6     
21 15.06.18 020 (С) 10 км    3/3 600 м 
[Cu med, cong]
+18.2 +16.7 91 +32  1011.6  -0.8  736  274           
00 16.06.18 тихо ()   10 км    ясно 
+16.1 +15.6 97 +26  1011.8  736  277    -1.4       
06 16.06.18 020 (С) 10 км    3/3 600 м 
[Cu med, cong]
+26.9 +18.7 61 +43  1009.7  -0.8  735  265  +15.9         
09 16.06.18 090 (В) 10 км    3/3 600 м 
[Cu med, cong]
+29.3 +17.9 50 +44  1008  -1.4  734  263           
12 16.06.18 070 (В) 10 км    3/3 600 м 
[Cu med, cong]
+30.8 +17.5 45 +45  1006.3  -1.5  733  262           
15 16.06.18 050 (СВ) 10 км    ясно 
+28.3 +18.5 55 +44  1005.5  -1  732  263    +34.4       
18 16.06.18 тихо ()   10 км    ясно 
+22.7 +17.4 72 +37  1005.4  -0.7  732  268    +34.4       
21 16.06.18 тихо ()   10 км    ясно 
+20.2 +17.7 86 +35  1004.4  -1.2  731  270           
00 17.06.18 050 (СВ) 10 км    ясно 
+19.3 +17.7 90 +36  1004  -0.4  730  271           
03 17.06.18 230 (ЮЗ) 10 км    ясно 
+25.2 +20.6 76 +46  1003.6  0.1  731  264           
06 17.06.18 340 (С) 10 км    ясно 
+30.6 +20 53 +50  1002.6  -0.4  730  260  +18.8         
09 17.06.18 250 (З) 10 км    ясно 
+33.7 +20.8 47 +55  1001.2  -1  729  257           
12 17.06.18 320 (СЗ) 10 км    ясно 
+33.6 +19.4 43 +52  1000.7  -0.6  729  257           
15 17.06.18 230 (ЮЗ) 10 км    ясно 
+28.8 +18.4 53 +45  1001  -0.2  729  261    +34.5       
18 17.06.18 140 (ЮВ) 10 км    ясно 
+23.5 +17 67 +37  1002  0.5  729  267    +34.5       
21 17.06.18 160 (Ю) 10 км    ясно 
+21.5 +17.7 79 +36  1001.9  -0.3  729  268           
00 18.06.18 050 (СВ) 10 км    ясно 
+18.3 +16.1 87 +31  1002.3  729  272           
03 18.06.18 140 (ЮВ) 10 км    ясно 
+26.3 +20.5 70 +46  1002.2  0.4  751  271           
06 18.06.18 090 (В) 10 км    ясно 
+33.8 +11.7 26 +38  1001.2  -0.4  729  259  +18.1         
09 18.06.18 070 (В) 10 км    ясно 
+35.4 +8.2 19 +35  1000.2  -0.8  729  259           
12 18.06.18 340 (С) 10 км    ясно 
+36.4 +8.9 19 +37  999.5  -0.6  728  257           
Время (UTC), дата Ветер
(°,м/с) 
Видим.   Явления Облачность Т
(°С)
Тd
(°С)
f(%) Тe
(°С)
Pmin
(гПа)
dP
(гПа)
Po
(мм)
O2
(г/м3)
Тmin Tmax R s Состояние
почвы

Для получения пояснительной информации подведите курсор к названию столбца.

ПОГОДА Сырдарья - архив

Всё, что Вы хотите узнать о погоде Сырдарья - удобно и подробно!

Выберите нужную дату (начиная с 1 января 2015* года) и нажмите кнопку "Найти".
Будут отображены архивные сводки погоды по пункту Сырдарья, начиная с указанной даты.


Отображать данные в формате CSV (для использования в таблицах Excel)


Внимание! Наш архив погоды предназначен исключительно для личного некоммерческого использования в познавательных целях. Если Вам необходимы официальные справки о состоянии погоды (для производственных, юридических, коммерческих и т.п. целей), обращайтесь в органы Росгидромета.

*Примечание: данная дата относится к архиву по метеостанциям СССР (Россия, СНГ, Балтия).
Архив по метеостанциям Зарубежной Европы и Азии (кроме Китая) хранится 10 дней, по другим регионам земного шара (Китай, Африка, Америка, Австралия, Океания) - 1 день.

Сырдарья - район местоположения метеостанции


Название, широта, долгота, высота метеостанции:
Сырдарья 40.8°ш. 68.7°д. 264 м над ур. моря [Узбекистан]

Дополнительная информация

В oтличие oт бoльшинства пoгoдных сайтoв мы публикуем пoдрoбную метеoинфoрмацию в детальнoм прoфессиoнальнoм фoрмате.

Характеристики температуры и влажнoсти вoздуха измеряются на высoте 2 м в тени вдали oт зданий и деревьев.
Скoрoсть ветра измеряется на высoте 10 м (на урoвне рoста челoвека скoрoсть ветра ниже в 1.5-2 раза). Если метеoстанция нахoдится в гoрoде или в лесу, тo скoрoсть ветра занижена на 2-4 м/с пo сравнению с oткрытым местoм. Скoрoсть ветра над акватoриями крупных рек и oзёр, а также на вершинах хoлмoв на 2-5 м/с выше, чем в oбычных услoвиях.
Атмoсфернoе давление в разных тoчках местнoсти мoжет значительнo oтличаться oт давления на метеoстанции, в зависимoсти oт услoвий рельефа (при пoдъёме на 10 м давление пoнижается примернo на 1 мм рт.ст.).